sat.trackr.live / text

‹ back to catalog

JB-3 3 (ZY 2C)

NORAD 28470 · 2004-044A

PAYLOAD ACTIVE UNKNOWN

§ Identity

Operator
Country
PRC
Launch date
2004-11-06
Launch site
TAISC
Launch vehicle
Mass (kg)
RCS (m²)
4.42

External: N2YO · Heavens-Above · Gunter

§ Orbital elements

Epoch: 2026-05-25T03:24:39.880800Z

Period
94.79 min
Inclination
97.2739°
Eccentricity
0.0031960
Mean motion
15.19142779 rev/d
Perigee alt
486.4 km
Apogee alt
530.4 km
Semi-major
6,886.6 km
B*
1.4079e-4
RAAN
299.5839°
Arg perigee
302.8919°
Mean anomaly
56.9242°
Rev number
18,428

§ Raw data

JB-3 3 (ZY 2C)1 28470U 04044A   26145.14212825  .00002929  00000+0  14079-3 0  99912 28470  97.2739 299.5839 0031960 302.8919  56.9242 15.19142779184283

JSON: /api/v1/satellites/28470 · /tle

For live sub-satellite position, see the globe view (requires WebGL).

§ Visibility from observer

Set your observer location to see the next 7 days of passes ≥ 10°. The values pass through the URL so the page stays shareable.

No JS? Fill the form by hand. The geolocation button needs JavaScript.